GW3284 Weather Reports


Display with metric or nautical units.
time (UTC)temp
F
wind
direction
speed
MPH
gust
MPH
rain 1hr
in
rain 24hr
in
rain mn
in
humidity
%
barometer
mb
20260906021556 84 0 0.0 2.0 0.00 0.00 0.00 62 1012.1
20260906020101 85 0 0.0 2.0 0.00 0.00 0.00 62 1011.7
20260906014557 86 248 0.0 2.0 0.00 0.00 0.00 61 1011.8
20260906013059 87 298 0.0 2.0 0.00 0.00 0.00 60 1011.8
20260906011602 88 0 0.0 4.0 0.00 0.00 0.00 59 1011.7
20260906010100 90 283 1.0 6.0 0.00 0.00 0.00 55 1012.0
20260906004554 91 0 0.0 0.0 0.00 0.00 0.00 54 1011.8
20260906003102 91 0 0.0 2.0 0.00 0.00 0.00 54 1011.9
20260906001558 91 0 0.0 2.0 0.00 0.00 0.00 53 1011.7
20260906000107 91 341 0.0 2.0 0.00 0.00 0.00 53 1011.6
20260905234559 92 331 1.0 1.0 0.00 0.00 0.00 51 1011.8
20260905233059 93 302 1.0 2.0 0.00 0.00 0.00 49 1011.9
20260905231558 94 310 1.0 3.0 0.00 0.00 0.00 48 1011.7
20260905230052 94 321 0.0 2.0 0.00 0.00 0.00 48 1011.8
20260905224558 95 275 0.0 3.0 0.00 0.02 0.00 47 1011.6
20260905223058 95 342 1.0 2.0 0.00 0.02 0.00 47 1011.7
20260905221554 96 292 2.0 3.0 0.00 0.02 0.00 46 1011.6
20260905220100 96 303 1.0 3.0 0.00 0.02 0.00 46 1011.5
20260905214557 97 330 2.0 4.0 0.00 0.02 0.00 44 1011.8
20260905213100 97 280 2.0 3.0 0.00 0.02 0.00 42 1011.8
20260905211610 97 265 2.0 4.0 0.00 0.02 0.00 43 1011.7
20260905210104 97 275 1.0 4.0 0.00 0.02 0.00 42 1011.9
20260905204603 97 322 2.0 4.0 0.00 0.02 0.00 43 1012.1
20260905203101 97 315 2.0 6.0 0.00 0.02 0.00 44 1012.3
20260905201556 97 284 2.0 3.0 0.00 0.02 0.00 44 1012.4
20260905200118 96 5 1.0 4.0 0.00 0.02 0.00 45 1012.9
20260905194600 96 248 3.0 7.0 0.00 0.02 0.00 46 1013.1
20260905193102 96 174 1.0 2.0 0.00 0.02 0.00 44 1013.1
20260905191559 95 352 1.0 6.0 0.00 0.02 0.00 46 1013.4
20260905190058 95 241 1.0 4.0 0.00 0.02 0.00 47 1013.5
20260905184556 94 302 1.0 4.0 0.00 0.02 0.00 50 1013.8
20260905183100 95 275 0.0 4.0 0.00 0.02 0.00 50 1013.9
20260905181558 94 256 2.0 6.0 0.00 0.02 0.00 48 1014.3
20260905180100 94 219 2.0 4.0 0.00 0.02 0.00 50 1014.4
20260905174555 93 197 0.0 2.0 0.00 0.02 0.00 51 1014.5
20260905173103 93 298 2.0 6.0 0.00 0.02 0.00 52 1014.4
20260905171556 92 271 1.0 3.0 0.00 0.02 0.00 54 1014.6
20260905170116 92 275 1.0 2.0 0.00 0.02 0.00 55 1014.7
20260905164558 91 278 1.0 2.0 0.00 0.02 0.00 56 1015.1
20260905163058 90 271 0.0 3.0 0.00 0.02 0.00 59 1015.2
20260905161601 88 207 0.0 2.0 0.00 0.02 0.00 61 1015.4
20260905160059 87 277 1.0 2.0 0.00 0.02 0.00 64 1015.6
20260905154603 85 315 0.0 2.0 0.00 0.02 0.00 70 1015.6
20260905153056 83 311 0.0 2.0 0.00 0.02 0.00 73 1015.6
20260905151619 82 0 0.0 0.0 0.00 0.02 0.00 75 1015.9
20260905150105 82 232 0.0 2.0 0.00 0.02 0.00 74 1015.9
20260905144600 81 0 0.0 2.0 0.00 0.02 0.00 77 1015.9
20260905143056 81 113 0.0 2.0 0.00 0.02 0.00 78 1016.0
20260905141558 81 0 0.0 0.0 0.00 0.02 0.00 77 1015.9
20260905140059 80 0 0.0 0.0 0.00 0.02 0.00 75 1015.7
20260905134600 80 0 0.0 0.0 0.00 0.02 0.00 78 1015.8
20260905133058 79 0 0.0 0.0 0.00 0.02 0.00 80 1015.8
20260905131606 79 0 0.0 0.0 0.00 0.02 0.00 79 1015.9
20260905130055 80 0 0.0 0.0 0.00 0.02 0.00 77 1015.9
20260905124601 79 0 0.0 2.0 0.00 0.02 0.00 72 1016.0
20260905123058 79 0 0.0 0.0 0.00 0.02 0.00 73 1015.9
20260905121557 79 0 0.0 0.0 0.00 0.02 0.00 72 1015.8
20260905120054 79 0 0.0 0.0 0.00 0.02 0.00 72 1015.5
20260905114559 79 0 0.0 0.0 0.00 0.02 0.00 71 1015.4
20260905113058 79 0 0.0 0.0 0.00 0.02 0.00 70 1015.2
20260905111555 80 0 0.0 0.0 0.00 0.02 0.00 70 1015.0
20260905110111 80 0 0.0 0.0 0.00 0.02 0.00 68 1014.8
20260905104558 80 0 0.0 2.0 0.00 0.02 0.00 69 1014.6
20260905103059 80 0 0.0 2.0 0.00 0.02 0.00 69 1014.5
20260905101606 81 100 0.0 2.0 0.00 0.02 0.00 69 1014.4
20260905100059 81 100 0.0 2.0 0.00 0.02 0.00 68 1014.3
20260905094559 80 71 0.0 2.0 0.00 0.02 0.00 70 1014.3
20260905093106 79 98 0.0 1.0 0.00 0.02 0.00 72 1014.2
20260905091607 78 98 0.0 2.0 0.00 0.02 0.00 74 1014.2
20260905090058 78 0 0.0 2.0 0.00 0.02 0.00 75 1014.2
20260905084600 79 0 0.0 0.0 0.00 0.02 0.00 74 1014.3
20260905083054 79 98 0.0 1.0 0.00 0.02 0.00 71 1014.2
20260905081600 79 0 0.0 0.0 0.00 0.02 0.00 71 1014.2
20260905080105 80 0 0.0 0.0 0.00 0.02 0.00 70 1014.5
20260905074557 80 0 0.0 0.0 0.00 0.02 0.00 71 1014.5
20260905073054 80 0 0.0 0.0 0.00 0.02 0.00 70 1014.5
20260905071550 80 0 0.0 0.0 0.00 0.02 0.00 70 1014.6
20260905070116 81 0 0.0 2.0 0.00 0.02 0.00 70 1014.6
20260905064556 81 98 0.0 2.0 0.00 0.02 0.00 69 1014.5
20260905063058 82 100 0.0 1.0 0.00 0.02 0.00 67 1014.5
20260905061551 82 118 1.0 1.0 0.00 0.02 0.00 68 1014.6
20260905060059 81 136 0.0 1.0 0.00 0.02 0.00 69 1014.4
20260905054557 80 128 0.0 2.0 0.00 0.02 0.00 72 1014.5
20260905053054 81 0 0.0 2.0 0.00 0.02 0.00 73 1014.6
20260905051550 81 121 1.0 2.0 0.00 0.02 0.00 69 1014.4
20260905044555 81 0 0.0 0.0 0.00 0.02 0.02 71 1014.8
20260905043052 83 0 0.0 0.0 0.00 0.02 0.02 69 1014.8
20260905041600 83 0 0.0 1.0 0.00 0.02 0.02 67 1014.7
20260905040059 81 115 0.0 1.0 0.00 0.02 0.02 70 1014.9
20260905034554 80 0 0.0 0.0 0.00 0.02 0.02 73 1015.0
20260905033054 82 0 0.0 2.0 0.00 0.02 0.02 73 1015.0
20260905031606 83 0 0.0 0.0 0.00 0.02 0.02 71 1015.1
20260905024559 84 115 0.0 1.0 0.00 0.02 0.02 67 1015.3
20260905023100 83 0 0.0 2.0 0.00 0.02 0.02 67 1015.4